CW6617 Weather Reports


time (UTC)temp
C
wind
direction
speed
KPH
gust
KPH
rain 1hr
cm
rain 24hr
cm
rain mn
cm
humidity
%
barometer
mb
20260506194704 11 309 0.0 3.2 0.00 0.00 0.00 68 1014.0
20260506194204 11 313 1.6 4.8 0.00 0.00 0.00 68 1013.9
20260506191704 12 333 1.6 8.0 0.00 0.00 0.00 67 1013.7
20260506191204 12 302 1.6 4.8 0.00 0.00 0.00 67 1013.7
20260506190704 12 304 1.6 3.2 0.00 0.00 0.00 67 1013.7
20260506190204 12 304 3.2 8.0 0.00 0.00 0.00 66 1013.6
20260506184704 12 350 1.6 4.8 0.00 0.00 0.00 65 1013.6
20260506184203 12 353 1.6 8.0 0.00 0.00 0.00 66 1013.6
20260506183704 12 357 1.6 4.8 0.00 0.00 0.00 65 1013.5
20260506181704 12 20 4.8 9.7 0.00 0.00 0.00 64 1013.3
20260506181204 12 315 3.2 9.7 0.00 0.00 0.00 64 1013.3
20260506180704 12 337 3.2 9.7 0.00 0.00 0.00 63 1013.2
20260506180203 12 352 1.6 14.5 0.00 0.00 0.00 63 1013.2
20260506174704 12 304 6.4 14.5 0.00 0.00 0.00 63 1013.1
20260506174204 12 299 4.8 14.5 0.00 0.00 0.00 62 1013.1
20260506173704 12 12 6.4 14.5 0.00 0.00 0.00 62 1013.1
20260506173204 12 305 3.2 14.5 0.00 0.00 0.00 63 1013.0
20260506170703 13 25 3.2 8.0 0.00 0.00 0.00 63 1013.0
20260506170203 13 310 3.2 14.5 0.00 0.00 0.00 63 1013.0
20260506164704 13 73 3.2 12.9 0.00 0.00 0.00 61 1012.8
20260506164204 14 328 4.8 16.1 0.00 0.00 0.00 60 1012.9
20260506163204 14 50 4.8 19.3 0.00 0.00 0.00 58 1012.9
20260506161703 13 12 4.8 12.9 0.00 0.00 0.00 59 1012.9
20260506161204 13 53 9.7 16.1 0.00 0.00 0.00 58 1012.9
20260506160703 14 60 9.7 16.1 0.00 0.00 0.00 57 1012.9
20260506154703 14 56 9.7 20.9 0.00 0.00 0.00 58 1012.9
20260506154204 15 52 9.7 20.9 0.00 0.00 0.00 57 1012.8
20260506153204 15 308 6.4 16.1 0.00 0.00 0.00 60 1012.9
20260506151705 13 354 6.4 14.5 0.00 0.00 0.00 63 1012.9
20260506151203 13 20 4.8 19.3 0.00 0.00 0.00 62 1013.0
20260506150704 13 50 14.5 22.5 0.00 0.00 0.00 62 1013.0
20260506150205 13 11 4.8 22.5 0.00 0.00 0.00 61 1013.1
20260506144704 15 312 3.2 20.9 0.00 0.00 0.00 59 1013.1
20260506144204 15 4 4.8 16.1 0.00 0.00 0.00 60 1013.1
20260506143703 15 53 11.3 22.5 0.00 0.00 0.00 59 1013.1
20260506143203 15 359 9.7 20.9 0.00 0.00 0.00 59 1013.1
20260506141704 15 313 9.7 25.7 0.00 0.00 0.00 59 1013.1
20260506141204 15 359 8.0 22.5 0.00 0.00 0.00 59 1013.0
20260506140704 15 310 4.8 16.1 0.00 0.00 0.00 58 1013.1
20260506140204 14 66 8.0 24.1 0.00 0.00 0.00 61 1013.1
20260506134204 14 24 8.0 22.5 0.00 0.00 0.00 61 1013.1
20260506133704 15 14 8.0 24.1 0.00 0.00 0.00 59 1013.1
20260506133204 15 44 8.0 22.5 0.00 0.00 0.00 60 1013.1
20260506131704 14 27 4.8 22.5 0.00 0.00 0.00 58 1013.0
20260506131205 13 25 8.0 24.1 0.00 0.00 0.00 58 1013.1
20260506130704 15 353 8.0 22.5 0.00 0.00 0.00 55 1013.1
20260506130204 15 11 9.7 25.7 0.00 0.00 0.00 55 1013.1
20260506124704 15 327 9.7 19.3 0.00 0.00 0.00 56 1013.1
20260506124204 15 35 16.1 22.5 0.00 0.00 0.00 52 1013.0
20260506123703 15 22 9.7 20.9 0.00 0.00 0.00 56 1013.0
20260506123204 15 46 9.7 24.1 0.00 0.00 0.00 55 1013.0
20260506121203 14 43 9.7 24.1 0.00 0.00 0.00 58 1013.2
20260506120703 14 46 11.3 20.9 0.00 0.00 0.00 55 1013.1
20260506114704 14 48 8.0 27.4 0.00 0.00 0.00 54 1013.2
20260506114203 14 42 9.7 20.9 0.00 0.00 0.00 55 1013.3
20260506113704 14 310 12.9 22.5 0.00 0.00 0.00 57 1013.2
20260506111703 14 41 11.3 22.5 0.00 0.00 0.00 55 1013.3
20260506110703 14 345 11.3 22.5 0.00 0.00 0.00 55 1013.3
20260506110204 15 325 11.3 20.9 0.00 0.00 0.00 58 1013.3
20260506104704 14 313 9.7 19.3 0.00 0.00 0.00 55 1013.2
20260506103704 13 55 16.1 32.2 0.00 0.00 0.00 58 1013.3
20260506101704 13 332 9.7 24.1 0.00 0.00 0.00 64 1013.4
20260506101204 13 36 9.7 20.9 0.00 0.00 0.00 63 1013.4
20260506100704 13 341 8.0 20.9 0.00 0.00 0.00 63 1013.4
20260506100204 12 302 8.0 20.9 0.00 0.00 0.00 65 1013.5
20260506094703 12 23 9.7 20.9 0.00 0.00 0.00 64 1013.5
20260506094203 12 30 12.9 22.5 0.00 0.00 0.00 63 1013.6
20260506093704 12 8 9.7 20.9 0.00 0.00 0.00 63 1013.4
20260506093204 12 54 9.7 20.9 0.00 0.00 0.00 65 1013.4
20260506091703 12 325 8.0 22.5 0.00 0.00 0.00 68 1013.5
20260506091204 11 325 11.3 20.9 0.00 0.00 0.00 68 1013.5
20260506090703 11 321 9.7 20.9 0.00 0.00 0.00 68 1013.5
20260506090203 11 350 9.7 22.5 0.00 0.00 0.00 70 1013.5
20260506084704 11 27 4.8 24.1 0.00 0.00 0.00 70 1013.4
20260506084204 11 311 8.0 16.1 0.00 0.00 0.00 71 1013.4
20260506083704 11 313 9.7 14.5 0.00 0.00 0.00 72 1013.5
20260506083204 11 26 8.0 20.9 0.00 0.00 0.00 71 1013.5
20260506081203 10 312 12.9 19.3 0.00 0.00 0.00 74 1013.3
20260506080703 10 1 4.8 14.5 0.00 0.00 0.00 77 1013.3
20260506080204 9 38 8.0 20.9 0.00 0.00 0.00 76 1013.3
20260506073204 9 16 6.4 20.9 0.00 0.00 0.00 78 1013.4
20260506071703 8 34 4.8 20.9 0.00 0.00 0.00 78 1013.4
20260506071204 8 348 6.4 19.3 0.00 0.00 0.00 79 1013.3
20260506070704 8 52 8.0 19.3 0.00 0.00 0.00 79 1013.3
20260506070204 8 23 8.0 19.3 0.00 0.00 0.00 79 1013.3
20260506061704 8 332 3.2 11.3 0.00 0.00 0.00 82 1013.0
20260506060704 7 339 4.8 11.3 0.00 0.00 0.00 83 1013.0
20260506060204 7 34 4.8 20.9 0.00 0.00 0.00 83 1013.0
20260506051204 7 21 4.8 19.3 0.00 0.00 0.00 84 1012.8
20260506050704 7 324 3.2 8.0 0.00 0.00 0.00 84 1012.8
20260506050203 7 29 3.2 12.9 0.00 0.00 0.00 84 1012.8
20260506044704 7 0 6.4 12.9 0.00 0.00 0.00 83 1012.8
20260506044204 7 2 4.8 19.3 0.00 0.00 0.00 83 1012.7
20260506043703 7 42 4.8 14.5 0.00 0.00 0.00 83 1012.7
20260506041703 8 21 3.2 9.7 0.00 0.00 0.00 83 1012.8
20260506040705 8 352 6.4 16.1 0.00 0.00 0.00 83 1012.8
20260506034705 8 318 1.6 4.8 0.00 0.00 0.00 84 1012.7
20260506034204 8 41 4.8 16.1 0.00 0.00 0.00 84 1012.8
20260506033704 8 52 4.8 14.5 0.00 0.00 0.00 84 1012.7
20260506033204 8 22 4.8 14.5 0.00 0.00 0.00 84 1012.6
20260506031705 8 46 1.6 4.8 0.00 0.00 0.00 84 1012.8
20260506031203 8 344 3.2 19.3 0.00 0.00 0.00 84 1012.8
20260506030204 8 311 3.2 9.7 0.00 0.00 0.00 84 1012.8
20260506024704 8 25 3.2 9.7 0.00 0.00 0.00 84 1012.7
20260506024204 8 342 3.2 9.7 0.00 0.00 0.00 84 1012.8
20260506023704 9 8 1.6 11.3 0.00 0.00 0.00 84 1012.7
20260506023204 9 20 6.4 16.1 0.00 0.00 0.00 84 1012.7
20260506021703 9 17 4.8 14.5 0.00 0.00 0.00 84 1012.7
20260506021204 9 45 8.0 22.5 0.00 0.00 0.00 84 1012.7
20260506020703 9 34 3.2 11.3 0.00 0.00 0.00 84 1012.8
20260506020204 9 316 3.2 16.1 0.00 0.00 0.00 84 1012.7
20260506014704 9 26 4.8 14.5 0.00 0.00 0.00 84 1012.8
20260506014204 9 17 0.0 8.0 0.00 0.00 0.00 84 1012.8
20260506013703 9 27 1.6 4.8 0.00 0.00 0.00 84 1012.9
20260506013204 9 15 1.6 14.5 0.00 0.00 0.00 84 1012.9
20260506011705 10 51 4.8 11.3 0.00 0.00 0.00 83 1012.8
20260506011204 10 60 3.2 16.1 0.00 0.00 0.00 83 1012.8
20260506010703 10 53 6.4 19.3 0.00 0.00 0.00 83 1012.9
20260506010203 10 46 3.2 16.1 0.00 0.00 0.00 83 1013.0
20260506004704 10 63 4.8 12.9 0.00 0.00 0.00 82 1013.0
20260506004204 10 353 4.8 16.1 0.00 0.00 0.00 81 1012.9
20260506003704 10 56 6.4 14.5 0.00 0.00 0.00 81 1012.9
20260506003203 10 37 3.2 16.1 0.00 0.00 0.00 81 1012.9
20260506001703 10 29 3.2 16.1 0.00 0.00 0.00 79 1013.0
20260506001203 10 16 1.6 9.7 0.00 0.00 0.00 79 1013.0
20260506000703 10 24 8.0 16.1 0.00 0.00 0.00 78 1012.9
20260506000205 10 59 9.7 20.9 0.00 0.00 0.00 78 1012.9
20260505234704 10 353 9.7 22.5 0.00 0.00 0.00 78 1012.9
20260505234203 10 49 4.8 22.5 0.00 0.00 0.00 79 1012.9
20260505233704 10 5 4.8 12.9 0.00 0.00 0.00 79 1012.8
20260505231705 11 42 6.4 20.9 0.00 0.00 0.00 79 1012.7
20260505231204 11 54 9.7 16.1 0.00 0.00 0.00 79 1012.7
20260505230703 11 58 8.0 16.1 0.00 0.00 0.00 78 1012.7
20260505224704 11 356 4.8 20.9 0.00 0.00 0.00 77 1012.7
20260505221704 12 22 4.8 19.3 0.00 0.00 0.00 76 1012.5
20260505221204 12 36 4.8 19.3 0.00 0.00 0.00 76 1012.5
20260505220703 12 13 4.8 16.1 0.00 0.00 0.00 76 1012.4
20260505214204 12 47 8.0 20.9 0.00 0.00 0.00 77 1012.4
20260505213704 12 51 4.8 19.3 0.00 0.00 0.00 77 1012.3
20260505213204 12 19 4.8 16.1 0.00 0.00 0.00 77 1012.4
20260505211704 12 55 4.8 22.5 0.00 0.00 0.00 77 1012.3
20260505210704 12 30 8.0 20.9 0.00 0.00 0.00 74 1012.3
20260505210204 12 9 4.8 22.5 0.00 0.00 0.00 74 1012.3
20260505204704 12 49 8.0 16.1 0.00 0.00 0.00 74 1012.2
20260505204203 12 35 3.2 16.1 0.00 0.00 0.00 74 1012.3
20260505203704 12 54 8.0 16.1 0.00 0.00 0.00 74 1012.2
20260505201703 13 34 8.0 20.9 0.00 0.00 0.00 74 1012.1
20260505201204 13 8 3.2 20.9 0.00 0.00 0.00 74 1012.1
20260505200703 13 13 4.8 14.5 0.00 0.00 0.00 74 1012.1